Find Starlink 30091

NORAD ID: 57463 Int'l Des: 2023-107 Owner: SPXS Country: US Constellation: starlink operational
LEOCIRCULAR

Live-Position

3D-Globus wird geladen...

Über Starlink 30091

Beschreibung wird geladen...

Nächste Überflüge

Passes for default location (London). Set your location on the main map for personalized predictions.

Höhenverlauf

Loading altitude history...

Zweizeiliger Elementsatz

1 57463U 23107G 26130.30653514 .00000243 00000-0 18350-4 0 9997
2 57463 43.0038 347.8658 0001292 264.1827 95.8878 15.27587365154576
Epoch: 10. Mai 2026 • Age: 12 hours

Aktueller Status

Höhe 485.2 km
Geschwindigkeit 7.62 km/s
Subsatellitenpunkt -13.75°S, 23.39°E
Startdatum 28. Juli 2023
Alter 2.7 years
Typ internet

Technische Details

Klassifizierung Payload
Masse 730.00 kg
Trockenmasse 700.00 kg
Gesamtmasse 730.00 kg
Länge 0.30 m
Durchmesser 4.10 m
Spannweite 29.00 m
Form Box + pan
Hersteller SPXS
Bus-Typ Starlink V2M
Phasenstatus In Orbit
Besitzer/Staat SPXS/US

Most Searched